Terminal Aerodrome Forecast
Issued by NWS Pittsburgh, PA

Current Version | Previous Version | Graphics & Text | Print | Product List | Glossary On
Versions: 1 2 3 4 5 6 7 8 9 10 11 12 13 14 15 16 17 18 19 20 21 22 23 24 25 26 27 28 29 30 31 32
000
FTUS41 KPBZ 052339
TAFPIT
TAF
KPIT 052339Z 0600/0706 25004KT P6SM -SHRA BKN050
     FM060100 VRB03KT P6SM BKN080
     FM061500 26008KT P6SM BKN040=

USA.gov is the U.S. government's official web portal to all federal, state and local government web resources and services.